Hourly Weather Roundup
Issued by NWS Central Illinois

Home | Current Version | Previous Version | Text Only | Print | Product List | Glossary On
Versions: 1 2 3 4 5 6 7 8 9 10 11 12 13 14 15 16 17 18 19 20 21 22 23 24 25 26 27 28 29 30 31 32 33 34 35 36 37 38 39 40 41 42 43 44 45 46 47 48 49 50
000
NZUS43 KILX 071610
HWRILX

AREA WEATHER ROUNDUP
NATIONAL WEATHER SERVICE, LINCOLN IL
1100 AM CDT TUE JUL 07 2015


CITY           SKY/WX    TMP DP  RH WIND       PRES   REMARKS
BLOOMINGTON    LGT RAIN  62  61  97 NE18      29.98R FOG
CHAMPAIGN      RAIN      68  67  96 N12G18    29.92S FOG
DANVILLE       RAIN      64  63  96 N18       29.90R
DECATUR        CLOUDY    70  67  90 N13       29.93R
EFFINGHAM      RAIN      73  70  91 W7        29.94R
FLORA          LGT RAIN  79  73  81 SW13      29.93R HX  83
GALESBURG      CLOUDY    65  60  81 N16       30.02R HAZE
JACKSONVILLE   CLOUDY    67  64  90 N10       29.98R FOG
LACON          CLOUDY    63  60  89 NE7       30.00R
LAWRENCEVILLE  LGT RAIN  81  74  79 SW15      29.92F HX  86
LITCHFIELD     CLOUDY    67  65  93 N13       29.96R FOG
$$


CITY           SKY/WX    TMP DP  RH WIND       PRES   REMARKS
LINCOLN        CLOUDY    66  64  91 N15G21    29.97R FOG
MACOMB         CLOUDY    65  60  84 N13G20    30.03R HAZE
MATTOON        RAIN      73  72  96 W8        29.90S FOG
MT CARMEL AP   CLOUDY    81  72  74 S13       29.93S HX  84
OLNEY-NOBLE AP CLOUDY    79  73  83 S9G20     29.92F HX  82
PARIS          CLOUDY    74  73  95 CALM      29.91S
PEORIA         CLOUDY    67  60  78 NE10      29.99R
PONTIAC        CLOUDY    62  58  89 NE14      30.00R
RANTOUL        CLOUDY    64  62  90 N17G29    29.94R FOG
ROBINSON       CLOUDY    80  73  79 SW9       29.92S HX  84
SPRINGFIELD    CLOUDY    68  65  90 N8        29.97R FOG
TAYLORVILLE    CLOUDY    66  64  94 N9        29.95R
$$

...REGIONAL REPORTS...


CITY           SKY/WX    TMP DP  RH WIND       PRES   REMARKS
CHICAGO O`HARE CLOUDY    64  49  57 NE20G29   30.00R
KANKAKEE       CLOUDY    61  55  82 N7G18     29.99R
MOLINE         MOSUNNY   69  57  65 NE12      30.02S HAZE
MOUNT STERLING NOT AVBL
MOUNT VERNON   CLOUDY    81  72  74 SW13      29.95S HX  84
PITTSFIELD     CLOUDY    65  62  89 N8        30.01R FOG
QUINCY         CLOUDY    65  60  84 N14       30.01R HAZE
ROCKFORD       PTSUNNY   66  56  70 NE8       30.03R
$$


CITY           SKY/WX    TMP DP  RH WIND       PRES   REMARKS
BURLINGTON     MOSUNNY   69  60  73 N15G25    30.02S HAZE
CEDAR RAPIDS   CLOUDY    65  58  78 N12       30.06S HAZE
DES MOINES     MOSUNNY   68  53  58 NE12      30.10S
KIRKSVILLE     LGT RAIN  69  57  65 N14G21    30.05R
OTTUMWA        SUNNY     68  59  73 N14       30.05S
ST LOUIS       CLOUDY    71  67  87 NW10      29.97R FOG
$$


CITY           SKY/WX    TMP DP  RH WIND       PRES   REMARKS
TERRE HAUTE    CLOUDY    79  74  84 SW8       29.90F HX  82
EVANSVILLE     CLOUDY    78  74  87 SW14      29.97S FOG     HX  81
INDIANAPOLIS   CLOUDY    77  72  84 S13       29.90F
LAFAYETTE      LGT RAIN  64  63  96 N14       29.92R FOG
MADISON        PTSUNNY   67  54  63 N12G17    30.04S SMOKE
MILWAUKEE      MOSUNNY   64  48  56 NE15G22   30.01S
$$





USA.gov is the U.S. government's official web portal to all federal, state and local government web resources and services.